Overview Statistics Trail Chart Weather Telemetry Raw packets
 

This is the latest recevied weather packets stored in our database for station/object KJ5PEC-13. If no packets are shown the sender has not sent any weather packets the latest 10 day(s).

<< 1 2 3 4 >>
Time Temp. Humidity Pressure Rain* Wind** Luminosity Snow
1788578177 17.22° C 44% 1030.2 hPa 0 mm - 0 W/m² -
1788577878 17.22° C 45% 1030.1 hPa 0 mm - 0 W/m² -
1788577572 16.67° C 43% 1029.9 hPa 0 mm - 0 W/m² -
1788577268 17.22° C 45% 1029.9 hPa 0 mm - 0 W/m² -
1788576962 17.22° C 46% 1029.8 hPa 0 mm - 0 W/m² -
1788576658 17.78° C 43% 1029.7 hPa 0 mm - 0 W/m² -
1788576354 17.78° C 42% 1029.9 hPa 0 mm - 0 W/m² -
1788576049 17.78° C 42% 1029.7 hPa 0 mm - 0 W/m² -
1788575744 17.78° C 43% 1029.5 hPa 0 mm - 0 W/m² -
1788575444 17.78° C 43% 1029.7 hPa 0 mm - 0 W/m² -
1788575143 17.78° C 41% 1029.3 hPa 0 mm - 0 W/m² -
1788574839 16.67° C 46% 1029.1 hPa 0 mm - 0 W/m² -
1788574538 17.78° C 46% 1029.3 hPa 0 mm - 0 W/m² -
1788574234 16.67° C 46% 1029.3 hPa 0 mm - 0 W/m² -
1788573933 15.56° C 52% 1029.1 hPa 0 mm - 0 W/m² -
1788573629 14.44° C 57% 1029.1 hPa 0 mm - 0 W/m² -
1788573326 15° C 58% 1028.9 hPa 0 mm - 0 W/m² -
1788573021 15° C 58% 1029 hPa 0 mm - 0 W/m² -
1788572716 16.11° C 54% 1028.9 hPa 0 mm - 0 W/m² -
1788572412 16.67° C 52% 1028.9 hPa 0 mm - 1 W/m² -
1788572108 16.11° C 52% 1028.9 hPa 0 mm - 2 W/m² -
1788571803 16.67° C 58% 1028.9 hPa 0 mm - 4 W/m² -
1788571498 16.11° C 46% 1029.1 hPa 0 mm - 6 W/m² -
1788571194 14.44° C 64% 1029 hPa 0 mm - 8 W/m² -
1788570890 15° C 74% 1029.1 hPa 1.78 mm - 10 W/m² -

* Rain latest hour (hover to see other rain measurements)
** Current wind speed in m/s (hover to see current wind gust speed)